SCP
0 0 1 1 1 0 0 0 0 0 0 0 0 0 0 0 0 0 0 0 0 0 0 0 0 0 0 0 0 0 0 0 0 0 0 0 0 0 0 0 0 -0 0
0 0 1 1 1 0 0 0 0 0 0 0 0 0 0 0 0 0 0 0 0 0 0 0 0 0 0 0 0 0 0 0 0 0 0 0 0 0 0 0 0 0 0
0 0 0 1 1 1 0 0 0 0 0 0 0 0 0 0 0 0 0 0 0 0 0 0 0 0 0 0 0 0 0 0 0 0 0 0 0 0 0 0 0 0 0
0 0 0 1 1 1 0 0 0 0 0 0 0 0 0 0 0 0 0 0 0 0 0 0 0 0 0 0 0 0 0 0 0 0 0 0 0 0 0 0 0 0 0
0 0 0 1 1 1 1 0 0 0 0 0 0 0 0 0 0 0 0 0 0 0 0 0 0 0 0 0 0 0 0 0 0 0 0 0 0 0 0 0 0 0 0
0 0 0 1 1 1 1 1 1 1 0 0 0 0 0 0 0 0 0 0 0 0 0 0 0 0 0 0 0 0 0 0 0 0 0 0 0 1 1 1 0 0 0
0 0 0 1 1 1 1 1 1 1 1 0 0 0 0 0 0 0 0 0 0 0 0 0 0 0 0 0 0 0 0 0 0 0 0 0 0 1 1 1 0 0 0
0 0 0 1 1 2 1 2 1 1 1 1 1 0 0 0 0 1 0 0 0 0 0 0 0 0 0 0 0 0 0 0 0 0 0 0 0 0 0 1 1 0 0
0 0 1 1 1 2 2 2 2 1 1 1 1 1 1 0 1 1 0 0 0 0 0 0 0 0 0 0 0 0 0 0 0 0 0 0 0 0 0 1 1 0 0
0 0 1 1 1 1 1 2 2 2 2 1 1 1 1 1 1 0 0 0 0 0 0 0 0 0 0 0 0 0 0 0 0 0 0 0 0 0 0 1 1 1 1
0 0 1 1 1 1 1 1 2 2 2 2 1 1 1 0 0 0 0 0 0 0 0 0 0 0 0 0 0 0 0 0 0 0 0 0 0 0 0 0 1 1 1
0 0 1 1 1 1 1 1 1 1 1 1 1 0 1 0 0 0 0 0 0 0 0 0 0 0 0 0 0 0 0 0 0 0 0 0 0 0 0 0 1 1 1
0 0 0 2 2 1 1 2 2 1 1 1 1 1 0 0 0 0 0 0 0 0 0 0 0 0 0 0 0 0 0 0 0 0 0 0 0 0 0 0 0 1 1
0 0 0 1 2 2 1 2 1 1 1 1 1 1 1 1 0 0 0 0 0 0 0 0 0 0 0 0 0 0 0 0 0 0 0 0 0 0 0 0 0 1 1
0 0 0 1 3 3 1 1 1 1 1 0 0 1 1 0 0 0 0 0 0 0 0 0 0 0 0 0 0 0 0 0 0 0 0 0 0 0 0 0 0 1 1
0 0 0 1 2 1 1 1 1 1 1 0 0 1 1 0 1 0 0 0 0 0 0 0 0 0 0 0 0 0 0 0 0 0 0 0 0 0 0 0 0 1 1
0 0 0 1 1 1 1 1 1 1 1 0 1 1 1 1 0 0 0 0 0 0 0 0 0 0 0 0 0 0 0 0 0 0 0 0 0 0 0 0 0 1 1
0 0 0 1 0 1 1 1 1 1 0 0 1 1 1 1 0 1 1 1 0 0 0 0 0 0 0 0 0 0 0 0 0 0 0 0 0 0 0 0 0 1 1
-0 0 0 0 0 0 1 1 1 1 0 1 1 1 1 1 0 1 1 0 0 0 0 0 0 0 0 0 0 0 0 0 0 0 0 0 0 0 0 0 0 1 1
0 0 0 0 0 1 1 1 0 0 0 1 1 1 1 1 0 0 1 0 1 0 0 0 0 0 0 0 0 0 0 0 0 0 0 0 0 0 0 1 1 0 0
0 0 0 0 0 1 1 0 0 0 0 1 1 1 1 0 0 0 1 1 0 0 0 0 0 0 0 0 0 0 0 0 0 0 0 0 0 0 0 0 1 1 1
0 0 0 0 0 1 0 0 0 0 0 0 0 1 1 0 0 0 0 0 0 0 0 0 0 0 0 0 0 0 0 0 0 0 0 0 0 0 0 0 0 1 1
0 0 0 0 0 0 0 1 1 1 1 0 1 1 1 0 0 0 0 0 0 0 0 0 0 0 0 0 0 0 0 0 0 0 0 0 0 0 1 1 0 0 0
0 0 0 0 0 0 0 0 0 0 0 0 0 0 1 0 0 0 0 0 0 0 0 0 0 -0 0 0 0 0 0 0 0 0 0 0 0 0 0 0 0 1 1
0 0 0 0 0 0 0 0 0 0 0 0 0 0 0 0 0 0 0 0 0 -0 -0 -0 -0 -0 -0 0 0 0 0 0 0 0 0 0 0 0 0 0 1 0 0
0 0 0 0 0 0 0 0 0 0 0 0 0 0 0 0 0 0 0 -0 -0 -0 0 0 0 0 0 0 0 0 0 0 0 0 0 0 0 0 0 0 0 0 0
Wind_Speed_500mb
29 29 31 30 27 23 20 20 19 17 13 12 13 15 17 17 19 22 25 26 24 24 24 22 19 24 26 27 28 31 34 34 33 32 32 32 27 24 21 18 16 18 17
23 30 33 27 25 23 25 24 22 21 18 14 15 17 18 19 19 20 22 23 23 22 24 25 25 19 22 25 26 29 32 36 37 35 34 32 33 31 27 23 18 27 22
25 33 35 26 26 25 27 27 24 22 19 15 16 17 18 19 21 21 21 21 20 22 24 26 26 25 19 21 26 26 30 35 38 39 37 30 26 37 34 30 25 30 30
25 31 33 32 31 28 25 25 23 21 20 16 17 19 20 21 23 22 20 22 22 21 24 27 29 25 23 19 20 25 28 32 36 40 34 26 25 28 38 37 30 30 33
28 33 32 33 33 34 29 26 22 21 19 17 18 20 22 22 24 24 24 26 29 30 29 26 25 22 25 25 20 20 24 29 32 32 28 32 27 29 34 38 36 34 34
30 33 30 33 35 37 37 30 25 21 16 15 17 20 24 23 22 24 30 34 33 36 35 31 25 29 28 29 28 26 22 26 30 23 26 32 40 32 37 37 38 36 34
35 38 33 36 39 39 40 39 34 26 21 17 17 20 23 21 22 30 35 37 38 40 39 36 36 38 36 36 37 35 31 28 25 24 29 29 28 45 41 39 37 39 36
33 41 37 37 41 45 43 45 39 34 27 23 20 21 21 17 27 39 38 41 42 44 46 43 40 41 41 39 38 40 35 32 27 26 31 30 32 45 43 42 41 38 35
37 44 44 41 43 48 49 49 43 40 31 28 26 24 21 25 36 40 40 42 45 50 52 51 50 46 46 44 45 43 40 38 32 31 30 30 38 39 44 45 42 42 37
42 44 50 46 47 52 56 53 46 41 36 34 30 28 26 30 35 38 40 40 41 41 43 44 45 50 51 50 47 45 44 43 35 33 35 32 43 42 43 46 43 41 42
42 49 47 44 44 48 48 49 49 45 43 41 36 33 31 25 24 27 32 38 42 36 34 34 34 37 41 46 49 49 48 37 36 35 37 41 52 41 40 43 43 40 41
45 50 52 48 45 44 42 41 46 44 43 35 29 26 24 24 26 31 33 39 35 35 35 31 30 31 31 27 31 37 42 39 41 41 39 44 47 39 39 42 42 40 41
39 50 52 54 57 49 44 42 37 35 32 31 30 29 26 26 25 25 24 23 22 28 23 23 23 22 23 29 32 33 32 40 40 41 41 49 44 37 40 41 41 41 41
38 48 52 56 66 61 45 42 37 35 33 29 25 29 30 25 25 26 25 23 25 24 25 24 23 25 25 27 31 31 40 37 39 42 43 51 44 39 40 41 41 42 41
42 43 55 58 65 68 63 42 41 39 35 28 26 26 29 26 26 24 26 25 27 27 28 26 26 27 25 23 29 33 30 35 37 38 36 40 40 42 40 40 42 42 41
39 41 49 59 62 65 68 58 52 49 33 32 24 24 31 29 27 26 28 27 29 30 29 26 25 25 25 26 27 29 30 32 39 41 29 29 34 42 41 38 41 41 40
40 38 52 58 60 67 67 61 57 46 42 27 23 30 32 32 30 31 33 31 30 29 33 32 26 25 24 26 26 28 28 31 29 29 28 25 23 31 38 38 43 39 38
50 45 47 51 56 69 68 62 55 40 36 26 23 24 28 32 34 36 40 40 31 31 30 29 25 27 25 25 28 29 27 30 26 24 24 24 23 23 27 37 40 38 37
46 47 53 48 53 63 66 60 54 47 34 25 24 23 25 29 32 39 40 35 33 35 29 26 27 27 26 28 28 25 25 26 24 23 23 24 25 26 26 30 35 36 33
41 44 44 40 51 59 60 56 45 32 28 24 23 24 27 28 31 37 37 34 36 30 27 27 33 28 28 27 26 25 24 23 25 22 22 22 26 23 26 30 24 28 33
35 36 35 42 53 58 54 46 36 31 25 21 22 25 27 27 29 33 33 36 36 35 32 33 32 30 27 27 26 25 25 26 25 24 21 23 26 25 24 25 24 28 39
24 27 32 40 51 53 44 35 28 25 21 20 20 23 23 23 26 30 33 35 33 28 29 33 33 27 28 32 25 23 19 19 25 25 22 20 22 21 22 22 25 30 39
18 24 34 43 49 49 38 34 27 20 17 14 17 15 16 16 22 24 28 27 28 27 29 30 31 26 26 25 27 17 14 15 27 21 20 20 21 22 27 29 29 36 37
21 30 37 44 51 48 38 26 23 16 13 16 14 15 14 14 15 13 15 17 19 21 22 19 18 18 21 22 24 19 13 12 32 19 23 21 21 22 24 22 26 30 34
30 38 43 49 48 41 35 23 17 13 11 11 10 13 14 15 10 10 10 13 13 12 13 14 14 18 17 18 22 19 16 15 15 17 22 19 20 15 17 21 25 29 41
41 46 48 47 39 34 29 22 18 13 9 9 11 14 14 16 11 11 10 10 11 10 7 9 13 16 18 16 17 17 17 12 18 17 23 28 25 20 26 25 32 42 38
Wind_Direction_500mb
186 190 191 202 200 201 209 209 218 223 236 265 278 276 276 271 263 260 260 265 270 272 275 273 262 257 261 257 251 246 239 237 238 233 227 221 218 212 211 207 207 185 195
193 193 190 198 199 202 213 212 215 218 232 256 270 275 275 274 266 257 254 256 264 275 279 278 277 260 256 262 253 248 243 237 235 238 232 229 226 223 218 224 214 199 216
192 192 194 190 196 205 214 214 217 222 232 256 273 276 275 271 271 266 258 246 255 272 279 278 274 277 255 250 258 253 248 243 236 237 237 231 232 228 226 228 224 211 215
196 192 195 192 196 201 208 216 222 230 239 265 280 286 284 280 275 260 255 244 258 271 279 280 272 269 279 267 252 256 254 251 244 239 237 245 247 237 226 226 224 219 215
198 196 196 194 197 204 208 214 219 231 244 271 284 291 288 281 273 266 260 260 265 271 280 273 263 269 282 284 279 263 260 257 254 245 243 242 242 248 231 228 226 222 216
206 200 200 199 201 205 213 215 219 226 242 265 284 292 289 283 266 261 267 267 271 272 280 272 259 258 258 267 270 272 265 265 259 251 244 240 239 234 235 227 225 222 219
204 207 207 205 208 210 216 221 225 226 236 254 278 292 293 279 271 277 272 270 270 268 268 261 264 258 253 254 258 259 260 258 256 249 240 242 238 235 229 225 227 222 221
216 215 214 212 211 215 218 224 228 231 238 249 271 287 292 277 273 273 270 268 266 265 266 264 258 259 251 250 249 250 253 254 256 252 241 240 239 236 225 226 225 225 224
221 223 221 222 216 216 222 227 231 235 242 249 262 280 282 270 267 270 271 270 270 269 268 263 258 257 250 255 254 253 254 253 243 243 248 245 251 242 223 226 225 225 224
228 223 223 225 223 219 220 224 231 237 245 252 260 273 276 273 270 273 273 283 273 273 267 264 259 253 255 255 251 248 251 250 246 242 244 237 242 242 226 223 225 227 222
240 227 222 219 215 217 217 226 229 233 243 250 256 266 272 267 263 275 274 268 277 274 270 264 260 255 252 252 253 253 247 244 244 244 238 240 247 238 229 222 223 224 225
246 234 223 216 213 209 208 213 228 230 238 242 245 252 266 257 261 259 262 278 272 276 275 274 265 259 251 251 254 266 243 233 236 235 235 243 246 234 231 225 222 220 226
263 239 228 221 218 212 211 213 212 216 227 233 242 256 262 259 267 276 271 276 280 285 277 281 277 279 257 248 253 234 239 233 230 234 232 244 242 233 231 229 223 220 224
266 242 227 222 223 226 213 213 212 212 221 231 246 267 268 263 269 268 261 265 268 268 262 263 261 256 254 252 242 240 220 224 229 230 228 245 239 231 229 229 225 224 225
262 241 225 221 226 224 217 213 211 215 229 231 246 259 261 253 260 260 259 259 254 256 258 257 261 260 256 255 243 240 224 224 223 226 230 250 239 231 233 231 224 226 227
270 243 225 223 224 222 224 219 227 228 226 243 239 244 262 261 259 256 261 259 254 254 249 249 254 254 260 254 241 236 228 224 221 221 224 244 246 231 234 236 227 227 229
268 252 228 221 226 220 224 226 228 228 230 230 236 252 264 269 263 258 257 254 256 255 255 246 249 255 251 252 243 233 223 226 222 222 226 230 246 249 239 235 229 228 229
272 253 242 227 223 220 219 222 222 218 230 226 232 245 268 273 270 263 265 262 253 252 250 244 243 239 244 245 244 226 216 222 221 225 231 228 233 234 259 239 230 230 230
262 252 244 233 209 211 213 216 216 223 224 226 235 248 263 266 264 269 265 253 246 253 245 239 237 238 241 243 242 231 215 209 216 226 224 228 231 225 223 241 231 228 232
249 243 237 221 203 201 206 207 207 214 218 229 240 254 261 268 265 265 260 247 243 246 240 235 235 237 237 244 232 224 209 208 221 218 222 222 227 225 217 216 228 229 232
243 232 215 197 195 194 194 191 197 208 219 231 245 256 266 270 264 259 251 252 250 250 233 236 234 236 234 233 216 213 213 207 209 212 215 220 221 222 214 215 210 215 229
229 203 192 187 193 185 185 181 192 201 218 228 246 256 264 265 263 255 252 256 248 238 232 233 234 234 233 222 206 196 189 198 204 203 204 213 215 218 219 220 212 211 222
202 186 178 179 182 178 177 182 190 200 213 246 262 265 265 254 260 262 262 254 244 233 233 239 240 231 220 216 207 200 183 197 184 199 204 208 210 214 213 215 212 208 202
170 163 166 170 173 180 182 180 183 195 220 236 237 244 249 249 250 251 250 239 229 231 237 231 229 215 207 200 204 212 234 205 192 174 199 198 200 204 197 201 195 192 193
154 154 157 163 170 180 180 173 176 188 229 232 239 242 246 246 231 224 223 223 223 228 231 214 198 188 199 197 199 201 214 200 207 193 176 166 163 163 157 163 179 177 156
145 146 153 161 167 176 177 172 169 188 206 222 247 258 260 262 229 200 201 203 213 219 208 182 188 195 204 208 201 212 208 184 194 184 164 153 153 157 135 148 166 169 176
Wind_Speed_850mb
29 29 31 30 27 23 20 20 19 17 13 12 13 15 17 17 19 22 25 26 24 24 24 22 19 24 26 27 28 31 34 34 33 32 32 32 27 24 21 18 16 18 17
23 30 33 27 25 23 25 24 22 21 18 14 15 17 18 19 19 20 22 23 23 22 24 25 25 19 22 25 26 29 32 36 37 35 34 32 33 31 27 23 18 27 22
25 33 35 26 26 25 27 27 24 22 19 15 16 17 18 19 21 21 21 21 20 22 24 26 26 25 19 21 26 26 30 35 38 39 37 30 26 37 34 30 25 30 30
25 31 33 32 31 28 25 25 23 21 20 16 17 19 20 21 23 22 20 22 22 21 24 27 29 25 23 19 20 25 28 32 36 40 34 26 25 28 38 37 30 30 33
28 33 32 33 33 34 29 26 22 21 19 17 18 20 22 22 24 24 24 26 29 30 29 26 25 22 25 25 20 20 24 29 32 32 28 32 27 29 34 38 36 34 34
30 33 30 33 35 37 37 30 25 21 16 15 17 20 24 23 22 24 30 34 33 36 35 31 25 29 28 29 28 26 22 26 30 23 26 32 40 32 37 37 38 36 34
35 38 33 36 39 39 40 39 34 26 21 17 17 20 23 21 22 30 35 37 38 40 39 36 36 38 36 36 37 35 31 28 25 24 29 29 28 45 41 39 37 39 36
33 41 37 37 41 45 43 45 39 34 27 23 20 21 21 17 27 39 38 41 42 44 46 43 40 41 41 39 38 40 35 32 27 26 31 30 32 45 43 42 41 38 35
37 44 44 41 43 48 49 49 43 40 31 28 26 24 21 25 36 40 40 42 45 50 52 51 50 46 46 44 45 43 40 38 32 31 30 30 38 39 44 45 42 42 37
42 44 50 46 47 52 56 53 46 41 36 34 30 28 26 30 35 38 40 40 41 41 43 44 45 50 51 50 47 45 44 43 35 33 35 32 43 42 43 46 43 41 42
42 49 47 44 44 48 48 49 49 45 43 41 36 33 31 25 24 27 32 38 42 36 34 34 34 37 41 46 49 49 48 37 36 35 37 41 52 41 40 43 43 40 41
45 50 52 48 45 44 42 41 46 44 43 35 29 26 24 24 26 31 33 39 35 35 35 31 30 31 31 27 31 37 42 39 41 41 39 44 47 39 39 42 42 40 41
39 50 52 54 57 49 44 42 37 35 32 31 30 29 26 26 25 25 24 23 22 28 23 23 23 22 23 29 32 33 32 40 40 41 41 49 44 37 40 41 41 41 41
38 48 52 56 66 61 45 42 37 35 33 29 25 29 30 25 25 26 25 23 25 24 25 24 23 25 25 27 31 31 40 37 39 42 43 51 44 39 40 41 41 42 41
42 43 55 58 65 68 63 42 41 39 35 28 26 26 29 26 26 24 26 25 27 27 28 26 26 27 25 23 29 33 30 35 37 38 36 40 40 42 40 40 42 42 41
39 41 49 59 62 65 68 58 52 49 33 32 24 24 31 29 27 26 28 27 29 30 29 26 25 25 25 26 27 29 30 32 39 41 29 29 34 42 41 38 41 41 40
40 38 52 58 60 67 67 61 57 46 42 27 23 30 32 32 30 31 33 31 30 29 33 32 26 25 24 26 26 28 28 31 29 29 28 25 23 31 38 38 43 39 38
50 45 47 51 56 69 68 62 55 40 36 26 23 24 28 32 34 36 40 40 31 31 30 29 25 27 25 25 28 29 27 30 26 24 24 24 23 23 27 37 40 38 37
46 47 53 48 53 63 66 60 54 47 34 25 24 23 25 29 32 39 40 35 33 35 29 26 27 27 26 28 28 25 25 26 24 23 23 24 25 26 26 30 35 36 33
41 44 44 40 51 59 60 56 45 32 28 24 23 24 27 28 31 37 37 34 36 30 27 27 33 28 28 27 26 25 24 23 25 22 22 22 26 23 26 30 24 28 33
35 36 35 42 53 58 54 46 36 31 25 21 22 25 27 27 29 33 33 36 36 35 32 33 32 30 27 27 26 25 25 26 25 24 21 23 26 25 24 25 24 28 39
24 27 32 40 51 53 44 35 28 25 21 20 20 23 23 23 26 30 33 35 33 28 29 33 33 27 28 32 25 23 19 19 25 25 22 20 22 21 22 22 25 30 39
18 24 34 43 49 49 38 34 27 20 17 14 17 15 16 16 22 24 28 27 28 27 29 30 31 26 26 25 27 17 14 15 27 21 20 20 21 22 27 29 29 36 37
21 30 37 44 51 48 38 26 23 16 13 16 14 15 14 14 15 13 15 17 19 21 22 19 18 18 21 22 24 19 13 12 32 19 23 21 21 22 24 22 26 30 34
30 38 43 49 48 41 35 23 17 13 11 11 10 13 14 15 10 10 10 13 13 12 13 14 14 18 17 18 22 19 16 15 15 17 22 19 20 15 17 21 25 29 41
41 46 48 47 39 34 29 22 18 13 9 9 11 14 14 16 11 11 10 10 11 10 7 9 13 16 18 16 17 17 17 12 18 17 23 28 25 20 26 25 32 42 38
Wind_Direction_850mb
186 190 191 202 200 201 209 209 218 223 236 265 278 276 276 271 263 260 260 265 270 272 275 273 262 257 261 257 251 246 239 237 238 233 227 221 218 212 211 207 207 185 195
193 193 190 198 199 202 213 212 215 218 232 256 270 275 275 274 266 257 254 256 264 275 279 278 277 260 256 262 253 248 243 237 235 238 232 229 226 223 218 224 214 199 216
192 192 194 190 196 205 214 214 217 222 232 256 273 276 275 271 271 266 258 246 255 272 279 278 274 277 255 250 258 253 248 243 236 237 237 231 232 228 226 228 224 211 215
196 192 195 192 196 201 208 216 222 230 239 265 280 286 284 280 275 260 255 244 258 271 279 280 272 269 279 267 252 256 254 251 244 239 237 245 247 237 226 226 224 219 215
198 196 196 194 197 204 208 214 219 231 244 271 284 291 288 281 273 266 260 260 265 271 280 273 263 269 282 284 279 263 260 257 254 245 243 242 242 248 231 228 226 222 216
206 200 200 199 201 205 213 215 219 226 242 265 284 292 289 283 266 261 267 267 271 272 280 272 259 258 258 267 270 272 265 265 259 251 244 240 239 234 235 227 225 222 219
204 207 207 205 208 210 216 221 225 226 236 254 278 292 293 279 271 277 272 270 270 268 268 261 264 258 253 254 258 259 260 258 256 249 240 242 238 235 229 225 227 222 221
216 215 214 212 211 215 218 224 228 231 238 249 271 287 292 277 273 273 270 268 266 265 266 264 258 259 251 250 249 250 253 254 256 252 241 240 239 236 225 226 225 225 224
221 223 221 222 216 216 222 227 231 235 242 249 262 280 282 270 267 270 271 270 270 269 268 263 258 257 250 255 254 253 254 253 243 243 248 245 251 242 223 226 225 225 224
228 223 223 225 223 219 220 224 231 237 245 252 260 273 276 273 270 273 273 283 273 273 267 264 259 253 255 255 251 248 251 250 246 242 244 237 242 242 226 223 225 227 222
240 227 222 219 215 217 217 226 229 233 243 250 256 266 272 267 263 275 274 268 277 274 270 264 260 255 252 252 253 253 247 244 244 244 238 240 247 238 229 222 223 224 225
246 234 223 216 213 209 208 213 228 230 238 242 245 252 266 257 261 259 262 278 272 276 275 274 265 259 251 251 254 266 243 233 236 235 235 243 246 234 231 225 222 220 226
263 239 228 221 218 212 211 213 212 216 227 233 242 256 262 259 267 276 271 276 280 285 277 281 277 279 257 248 253 234 239 233 230 234 232 244 242 233 231 229 223 220 224
266 242 227 222 223 226 213 213 212 212 221 231 246 267 268 263 269 268 261 265 268 268 262 263 261 256 254 252 242 240 220 224 229 230 228 245 239 231 229 229 225 224 225
262 241 225 221 226 224 217 213 211 215 229 231 246 259 261 253 260 260 259 259 254 256 258 257 261 260 256 255 243 240 224 224 223 226 230 250 239 231 233 231 224 226 227
270 243 225 223 224 222 224 219 227 228 226 243 239 244 262 261 259 256 261 259 254 254 249 249 254 254 260 254 241 236 228 224 221 221 224 244 246 231 234 236 227 227 229
268 252 228 221 226 220 224 226 228 228 230 230 236 252 264 269 263 258 257 254 256 255 255 246 249 255 251 252 243 233 223 226 222 222 226 230 246 249 239 235 229 228 229
272 253 242 227 223 220 219 222 222 218 230 226 232 245 268 273 270 263 265 262 253 252 250 244 243 239 244 245 244 226 216 222 221 225 231 228 233 234 259 239 230 230 230
262 252 244 233 209 211 213 216 216 223 224 226 235 248 263 266 264 269 265 253 246 253 245 239 237 238 241 243 242 231 215 209 216 226 224 228 231 225 223 241 231 228 232
249 243 237 221 203 201 206 207 207 214 218 229 240 254 261 268 265 265 260 247 243 246 240 235 235 237 237 244 232 224 209 208 221 218 222 222 227 225 217 216 228 229 232
243 232 215 197 195 194 194 191 197 208 219 231 245 256 266 270 264 259 251 252 250 250 233 236 234 236 234 233 216 213 213 207 209 212 215 220 221 222 214 215 210 215 229
229 203 192 187 193 185 185 181 192 201 218 228 246 256 264 265 263 255 252 256 248 238 232 233 234 234 233 222 206 196 189 198 204 203 204 213 215 218 219 220 212 211 222
202 186 178 179 182 178 177 182 190 200 213 246 262 265 265 254 260 262 262 254 244 233 233 239 240 231 220 216 207 200 183 197 184 199 204 208 210 214 213 215 212 208 202
170 163 166 170 173 180 182 180 183 195 220 236 237 244 249 249 250 251 250 239 229 231 237 231 229 215 207 200 204 212 234 205 192 174 199 198 200 204 197 201 195 192 193
154 154 157 163 170 180 180 173 176 188 229 232 239 242 246 246 231 224 223 223 223 228 231 214 198 188 199 197 199 201 214 200 207 193 176 166 163 163 157 163 179 177 156
145 146 153 161 167 176 177 172 169 188 206 222 247 258 260 262 229 200 201 203 213 219 208 182 188 195 204 208 201 212 208 184 194 184 164 153 153 157 135 148 166 169 176